Location: Brno
(49.2000°N, 16.6330°E)
Time: 18:21:27
(UTC+02:00)

Transit 4A - Pass Details

Date: 28 July 2021
Orbit: 871 x 974 km, 66.8° (Epoch: 16 September)

Event Time Altitude Azimuth Distance (km) Brightness Sun altitude
Rises 01:40:03 0° 202° (SSW) 3,494 - -21.2°
Reaches altitude 10° 01:42:34 10° 199° (SSW) 2,546 - -21.2°
Exits shadow 01:46:29 41° 180° (S) 1,247 8.1 -21.0°
Maximum altitude 01:48:21 62° 120° (ESE) 984 7.9 -21.0°
Drops below altitude 10° 01:54:05 10° 41° (NE) 2,528 11.1 -20.8°
Sets 01:56:35 0° 38° (NE) 3,469 12.1 -20.7°
